This demonstration page uses our WeatherBlox Daily Observations layout. Learn more.

Left ArrowRight Arrow

Hourly Observations for February 24, 2022

Temp ( °F °C ) Dew Point ( °F °C ) Humidity (%) Winds ( mph kmh ) Pressure ( in mb ) Visibility ( mi km ) Precip ( " mm )
12:15 am 00:15 Clear 2 -16.5 -8 -22.2 62 62 ENE 10 17 30.62 1037 10 16 0.00 0.00
12:35 am 00:35 Clear 3 -16.2 -8 -22 61 61 ENE 13 20 30.60 1036 10 16 0.00 0.00
12:55 am 00:55 Clear 3 -16.2 -8 -22 61 61 ENE 10 17 30.60 1036 10 16 0.00 0.00
1:15 am 01:15 Mostly Cloudy 3 -16 -7 -21.7 62 62 ENE 13 20 30.57 1035 10 16 0.00 0.00
1:35 am 01:35 Mostly Cloudy 3 -16 -7 -21.7 62 62 ENE 13 20 30.57 1035 10 16 0.00 0.00
1:55 am 01:55 Partly Cloudy 3 -16.1 -7 -21.6 63 63 NE 12 19 30.57 1035 10 16 0.00 0.00
2:15 am 02:15 Partly Cloudy 3 -16.2 -7 -21.5 64 64 ENE 12 19 30.56 1035 10 16 0.00 0.00
2:35 am 02:35 Clear 3 -16.2 -7 -21.5 64 64 ENE 8 13 30.57 1035 10 16 0.00 0.00
2:55 am 02:55 Clear 3 -16.1 -6 -21.3 65 65 ENE 13 20 30.55 1035 10 16 0.00 0.00
3:15 am 03:15 Partly Cloudy 3 -16.1 -6 -21.2 65 65 E 8 13 30.56 1035 10 16 0.00 0.00
3:35 am 03:35 Partly Cloudy 3 -16.2 -6 -21.1 66 66 ENE 6 9 30.57 1035 10 16 0.00 0.00
3:55 am 03:55 Partly Cloudy 3 -16 -6 -20.9 66 66 NE 7 11 30.56 1035 10 16 0.00 0.00
4:15 am 04:15 Clear 3 -16.2 -6 -21 67 67 NE 6 9 30.55 1035 10 16 0.00 0.00
4:35 am 04:35 Clear 3 -16.2 -6 -21 67 67 NE 9 15 30.53 1034 10 16 0.00 0.00
4:55 am 04:55 Clear 3 -16.3 -5 -20.8 68 68 NE 7 11 30.56 1035 10 16 0.00 0.00
5:15 am 05:15 Partly Cloudy 3 -16.2 -5 -20.6 69 69 NE 8 13 30.54 1034 10 16 0.00 0.00
5:35 am 05:35 Partly Cloudy 3 -16.3 -5 -20.6 70 70 NE 9 15 30.53 1034 10 16 0.00 0.00
5:55 am 05:55 Clear 3 -16.2 -5 -20.5 70 70 NNE 6 9 30.55 1035 10 16 0.00 0.00
6:15 am 06:15 Clear 3 -16.2 -4 -20.2 72 72 NE 9 15 30.54 1034 10 16 0.00 0.00
6:35 am 06:35 Clear 3 -16.3 -4 -20.2 72 72 NE 12 19 30.52 1034 10 16 0.00 0.00
6:55 am 06:55 Mostly Cloudy 3 -16.2 -4 -20 73 73 NE 9 15 30.53 1034 10 16 0.00 0.00
7:15 am 07:15 Cloudy 3 -16.2 -4 -20 73 73 NNE 8 13 30.52 1034 10 16 0.00 0.00
7:35 am 07:35 Cloudy 3 -16.1 -4 -19.8 73 73 NNE 8 13 30.53 1034 10 16 0.00 0.00
7:55 am 07:55 Cloudy 3 -16.1 -4 -19.8 73 73 NE 9 15 30.52 1034 10 16 0.00 0.00
8:15 am 08:15 Cloudy 3 -15.9 -3 -19.6 73 73 NE 7 11 30.54 1034 10 16 0.00 0.00
8:35 am 08:35 Cloudy 4 -15.6 -3 -19.4 73 73 NE 7 11 30.54 1034 10 16 0.00 0.00
8:55 am 08:55 Cloudy 4 -15.4 -3 -19.2 73 73 NNE 6 9 30.54 1034 10 16 0.00 0.00
9:15 am 09:15 Cloudy with Haze 5 -15 -2 -18.9 72 72 NNE 6 9 30.52 1033 5 8 0.00 0.00
9:35 am 09:35 Cloudy with Haze 6 -14.6 -2 -18.7 71 71 NNE 8 13 30.51 1033 4 6 0.00 0.00
9:55 am 09:55 Cloudy 7 -13.9 -1 -18.4 69 69 N 8 13 30.51 1033 7 11 0.00 0.00
10:15 am 10:15 Cloudy 7 -14.1 -2 -18.8 68 68 NNE 7 11 30.52 1034 7 11 0.00 0.00
10:35 am 10:35 Cloudy with Haze 7 -14 -2 -18.9 67 67 NNE 5 7 30.51 1033 4 6 0.00 0.00
10:55 am 10:55 Cloudy 8 -13.3 -2 -18.8 64 64 NE 7 11 30.50 1033 10 16 0.00 0.00
11:15 am 11:15 Cloudy 10 -12.4 -1 -18.4 61 61 N 7 11 30.48 1032 7 11 0.00 0.00
11:35 am 11:35 Cloudy 9 -12.7 -1 -18.4 63 63 NW 6 9 30.48 1032 7 11 0.00 0.00
11:55 am 11:55 Cloudy 10 -12.2 -1 -18.5 60 60 N 6 9 30.46 1031 10 16 0.00 0.00
12:15 pm 12:15 Cloudy 11 -11.6 -1 -18.4 57 57 NNE 5 7 30.45 1031 10 16 0.00 0.00
12:35 pm 12:35 Cloudy 11 -11.5 -1 -18.4 57 57 NNW 5 7 30.44 1031 10 16 0.00 0.00
12:55 pm 12:55 Cloudy 12 -11.1 -1 -18.5 55 55 NW 5 7 30.43 1030 10 16 0.00 0.00
1:15 pm 13:15 Cloudy 12 -10.9 -1 -18.6 53 53 Calm 30.41 1030 10 16 0.00 0.00
1:35 pm 13:35 Mostly Cloudy 13 -10.6 -2 -18.7 52 52 N 3 6 30.40 1030 10 16 0.00 0.00
1:55 pm 13:55 Mostly Cloudy 14 -10.1 -1 -18.5 51 51 N 6 9 30.39 1029 10 16 0.00 0.00
2:15 pm 14:15 Cloudy 16 -8.8 -1 -18.1 47 47 NNW 8 13 30.36 1028 10 16 0.00 0.00
2:35 pm 14:35 Mostly Cloudy 16 -9 -1 -18.6 46 46 NNE 6 9 30.37 1028 10 16 0.00 0.00
2:55 pm 14:55 Mostly Cloudy 16 -9 -2 -18.7 46 46 NNW 8 13 30.37 1028 10 16 0.00 0.00
3:15 pm 15:15 Mostly Cloudy 16 -8.9 -2 -18.9 45 45 NNW 9 15 30.36 1028 10 16 0.00 0.00
3:35 pm 15:35 Cloudy 17 -8.5 -1 -18.3 45 45 NNW 8 13 30.37 1028 10 16 0.00 0.00
3:55 pm 15:55 Cloudy 16 -8.9 2 -16.9 53 53 NNW 8 13 30.38 1029 7 11 0.00 0.00
4:15 pm 16:15 Cloudy 17 -8.6 4 -15.7 57 57 NNW 12 19 30.39 1029 7 11 0.00 0.00
4:35 pm 16:35 Partly Cloudy 16 -9.1 1 -17.1 53 53 NW 8 13 30.40 1029 10 16 0.00 0.00
4:55 pm 16:55 Partly Cloudy 16 -9.1 2 -16.9 54 54 NNW 7 11 30.41 1030 10 16 0.00 0.00
5:15 pm 17:15 Mostly Cloudy 16 -9 2 -16.8 54 54 NNW 9 15 30.42 1030 10 16 0.00 0.00
5:35 pm 17:35 Cloudy 16 -9 3 -16 57 57 N 9 15 30.42 1030 10 16 0.00 0.00
5:55 pm 17:55 Mostly Cloudy 14 -9.9 2 -16.6 58 58 N 8 13 30.43 1031 10 16 0.00 0.00
6:15 pm 18:15 Partly Cloudy 13 -10.3 2 -16.8 59 59 N 6 9 30.45 1031 10 16 0.00 0.00
6:35 pm 18:35 Clear 12 -11 1 -17.5 59 59 N 5 7 30.47 1032 10 16 0.00 0.00
6:55 pm 18:55 Clear 9 -12.8 -2 -19 60 60 N 7 11 30.50 1033 10 16 0.00 0.00
7:15 pm 19:15 Clear 7 -14 -4 -20 61 61 NNE 6 9 30.52 1033 10 16 0.00 0.00
7:35 pm 19:35 Partly Cloudy 8 -13.2 -2 -18.7 64 64 N 5 7 30.53 1034 10 16 0.00 0.00
7:55 pm 19:55 Clear 6 -14.5 -4 -19.9 64 64 NNE 3 6 30.53 1034 10 16 0.00 0.00
8:15 pm 20:15 Partly Cloudy 6 -14.5 -3 -19.7 65 65 N 3 6 30.54 1034 10 16 0.00 0.00
8:35 pm 20:35 Clear 5 -15.1 -4 -20.1 66 66 NNE 7 11 30.55 1035 10 16 0.00 0.00
8:55 pm 20:55 Clear 4 -15.5 -4 -19.9 69 69 NNE 6 9 30.55 1035 10 16 0.00 0.00
9:15 pm 21:15 Clear 4 -15.6 -4 -20.1 69 69 NNE 3 6 30.57 1035 10 16 0.00 0.00
9:35 pm 21:35 Clear 5 -15.1 -3 -19.4 70 70 NNE 5 7 30.58 1036 10 16 0.00 0.00
9:55 pm 21:55 Clear 4 -15.5 -4 -19.8 70 70 NNE 5 7 30.60 1036 10 16 0.00 0.00
10:10 pm 22:10 Clear 3 -15.9 -4 -20 71 71 NNE 5 7 30.60 1036 10 16 0.00 0.00
10:35 pm 22:35 Clear 1 -17.5 -7 -21.4 72 72 NE 5 7 30.62 1037 10 16 0.00 0.00
10:55 pm 22:55 Clear 3 -15.9 -3 -19.7 73 73 Calm 30.60 1036 10 16 0.00 0.00
11:15 pm 23:15 Clear 3 -15.9 -3 -19.6 73 73 Calm 30.62 1037 10 16 0.00 0.00
11:35 pm 23:35 Clear 4 -15.7 -2 -19 76 76 Calm 30.62 1037 10 16 0.00 0.00
11:55 pm 23:55 Clear 3 -16.2 -3 -19.2 78 78 Calm 30.63 1037 10 16 0.00 0.00

Powered by AerisWeather